ECMWFFLT2_925_spd_000.txt.gz
Wind_Speed
22 22 21 21 20 19 17 16 16 16 15 15 15 15 15 14 14 14 13 14 13 13 13 13 13 14 14 13 13 13 12 11 10 9 9 9 8 8 7 6 4 3 2 1 0 0 2 4 6 8 9 8
23 23 23 23 22 21 20 19 18 17 16 16 16 15 15 15 15 15 14 14 14 14 14 13 13 14 14 14 13 13 12 11 11 10 9 9 8 8 7 6 6 5 3 1 1 1 4 6 6 8 7 7
25 24 25 24 24 23 22 22 21 20 18 17 17 17 16 17 17 17 17 16 15 14 14 14 15 14 14 14 13 13 12 12 11 10 10 9 9 8 9 9 8 6 4 3 2 2 5 7 7 7 6 6
26 26 26 26 25 25 24 24 23 23 21 19 19 20 20 20 20 20 20 18 17 15 15 17 18 16 14 14 13 13 12 12 12 11 10 9 9 10 11 11 10 7 5 5 5 5 7 7 7 6 7 7
27 27 27 27 27 26 26 25 25 25 24 22 22 22 22 22 22 22 23 21 20 18 17 20 21 18 14 13 13 13 13 13 12 12 11 10 10 12 13 12 10 8 7 7 7 7 8 7 7 7 7 8
28 28 28 28 28 27 27 26 26 26 26 25 24 23 23 24 24 24 24 23 22 21 21 23 22 19 16 13 13 13 13 14 13 12 11 11 11 14 14 13 10 8 8 7 7 7 8 7 7 7 8 9
29 29 29 29 29 28 28 28 28 27 27 27 26 25 25 25 26 26 26 24 23 23 24 25 22 20 18 14 12 14 15 17 15 13 13 14 15 16 14 12 10 9 8 7 7 7 7 7 7 8 9 11
31 30 30 30 30 30 29 29 29 28 28 28 28 27 27 27 27 28 27 26 24 25 26 26 24 21 19 16 14 17 19 19 18 16 17 18 18 17 14 12 11 9 8 8 7 7 7 7 8 8 10 11
34 33 32 32 32 31 31 30 30 30 30 30 30 29 29 29 28 29 29 27 26 27 27 27 26 23 22 21 20 22 22 21 20 20 20 19 18 17 15 13 12 11 9 8 8 8 8 8 8 9 11 12
37 36 35 34 34 33 33 32 32 31 31 32 31 31 31 30 30 30 30 29 28 28 29 28 27 25 24 24 24 24 22 21 20 20 20 19 18 17 15 14 13 12 10 10 9 9 9 9 9 10 11 12
40 39 39 38 37 36 35 34 33 34 34 34 33 32 33 32 32 32 32 31 30 30 30 30 29 27 26 25 26 25 22 21 20 20 20 20 19 17 16 15 14 13 12 11 10 10 10 10 10 11 12 13
43 42 42 41 40 39 38 37 36 36 35 35 34 34 34 34 34 34 33 33 32 31 32 32 30 28 27 27 26 24 23 22 21 21 21 20 19 18 17 16 15 14 12 11 10 10 10 11 11 12 12 13
45 45 44 44 43 43 41 40 39 38 37 36 36 36 36 36 36 35 35 35 34 33 33 33 31 30 29 28 26 25 24 23 22 21 21 20 19 18 17 16 15 14 13 12 11 10 10 11 12 12 13 13
47 46 46 46 46 45 44 43 42 40 39 38 37 37 38 38 38 37 37 36 35 34 35 34 33 32 30 29 28 26 25 23 22 21 21 20 19 19 18 16 15 14 13 12 11 11 10 11 12 13 13 13
48 47 47 48 47 46 46 45 45 43 42 41 40 39 39 39 39 39 39 38 37 36 35 35 34 33 32 31 29 27 25 23 22 21 21 20 19 18 17 16 15 14 13 12 12 11 11 11 12 12 13 13
47 47 48 47 47 47 47 46 45 45 44 44 43 41 40 40 39 40 40 39 38 37 36 36 35 34 33 32 29 27 25 23 22 21 20 19 18 17 16 16 15 14 13 12 12 12 11 11 11 12 13 12
46 47 47 46 47 47 47 46 45 46 46 46 45 43 42 41 40 40 40 40 39 38 37 36 36 35 34 32 30 27 25 23 22 21 20 19 18 18 17 16 15 14 14 13 13 13 12 12 12 12 12 12
45 46 46 45 46 45 45 45 45 46 46 46 45 45 44 42 41 41 41 41 40 39 38 37 37 36 35 33 30 28 26 25 23 22 21 20 19 18 17 17 16 15 15 15 15 14 14 13 12 13 12 12
44 45 44 44 44 43 43 43 44 45 45 45 44 44 44 43 42 42 42 41 40 39 38 38 38 37 35 33 31 29 27 26 24 23 22 21 20 19 19 18 17 17 16 16 16 16 15 14 14 13 13 13
41 41 40 41 41 41 41 41 42 43 43 42 43 42 43 44 43 43 42 41 41 40 39 39 39 38 36 34 32 30 28 27 25 24 23 22 21 20 20 19 18 18 17 18 18 16 16 15 15 15 14 14
36 37 38 38 38 38 39 40 41 42 41 41 42 42 43 43 43 43 42 42 41 41 40 40 39 38 36 35 33 31 30 28 27 25 24 23 22 21 20 20 19 19 19 19 18 18 18 17 17 16 16 15
32 33 34 35 36 36 37 39 41 40 40 41 42 42 43 43 42 42 42 42 42 41 41 41 40 39 37 36 34 32 31 30 28 26 25 24 23 22 21 20 19 19 19 18 19 19 20 19 19 18 18 17
27 28 29 31 31 33 35 38 39 39 40 41 41 42 42 42 42 42 42 42 42 42 41 41 41 39 38 37 36 34 32 31 29 28 26 25 24 23 21 20 19 18 17 18 19 21 22 22 21 20 19 18
23 23 25 27 28 30 34 36 36 37 38 39 40 41 41 41 41 42 41 41 42 42 42 42 41 40 39 38 37 35 34 33 32 30 28 27 26 24 21 20 19 18 17 17 19 22 23 23 22 21 19 19
20 20 20 21 24 29 32 31 32 34 36 37 39 39 39 40 41 41 41 41 41 41 42 42 41 40 39 39 38 37 37 36 34 32 29 28 26 24 22 21 20 19 16 13 14 16 18 20 19 16 14 13
20 20 18 19 21 24 26 25 27 31 33 34 36 36 38 39 39 39 40 41 41 41 42 42 42 42 41 40 40 39 37 36 34 32 31 29 26 23 22 22 20 18 14 8 5 5 8 13 12 7 6 4
19 20 20 20 22 22 23 24 24 26 28 29 31 33 34 36 37 38 40 40 41 42 42 42 43 43 42 42 41 39 37 36 35 33 32 31 29 24 21 20 19 18 16 10 4 1 2 4 4 3 3 2
25 21 20 20 21 21 22 24 23 23 24 25 26 28 30 33 36 38 39 40 41 41 42 43 43 43 43 42 42 41 39 38 37 36 34 32 31 27 21 18 19 18 18 16 10 2 0 0 1 3 2 4
37 31 26 24 23 22 20 21 22 22 24 23 23 26 29 31 33 35 38 39 40 41 42 42 43 43 42 42 42 41 40 40 39 38 37 34 33 31 26 21 19 17 17 19 17 10 4 1 1 2 2 4
43 39 34 29 26 23 21 21 22 22 23 23 23 26 28 29 31 33 35 37 39 40 41 42 42 42 42 41 41 41 40 40 39 39 38 36 34 33 31 25 20 18 17 17 19 18 14 10 6 3 2 3
44 41 38 33 27 24 21 21 25 26 26 25 25 26 26 27 29 30 33 35 37 39 41 41 41 41 41 41 41 40 40 39 39 39 38 37 35 33 32 28 23 21 20 16 17 21 21 18 14 9 5 2

ECMWFFLT2_925_spd_003.txt.gz
Wind_Speed
19 20 20 20 19 19 18 18 18 17 17 16 16 15 14 14 14 13 13 13 13 12 12 12 12 13 13 13 13 12 13 12 12 12 12 11 11 11 11 11 10 10 9 8 8 7 6 6 6 6 6 6
21 21 21 21 20 19 18 19 18 18 17 17 16 16 15 15 15 14 13 13 13 13 13 12 12 13 13 13 13 12 13 13 12 12 12 12 12 12 12 12 11 10 9 8 7 7 7 7 7 6 6 5
22 22 22 22 22 21 20 19 19 19 18 17 17 17 17 17 16 16 15 14 13 13 13 13 13 13 13 13 13 12 12 13 13 13 13 13 13 13 13 13 11 10 9 8 8 8 8 7 6 6 5 5
24 24 23 23 23 23 22 20 20 20 19 18 18 18 18 18 18 18 17 16 15 14 13 14 14 14 13 13 13 12 13 13 13 13 13 13 13 13 13 13 13 11 10 9 9 9 8 7 6 6 6 5
27 26 25 25 25 25 24 22 21 21 21 20 20 20 20 20 21 21 21 18 17 17 15 15 17 16 14 13 13 13 13 13 13 13 13 13 13 14 15 15 13 11 10 10 10 10 9 8 8 8 7 7
28 28 27 27 27 26 26 25 24 24 24 24 24 24 24 24 23 23 22 21 20 20 18 18 19 18 15 13 13 13 14 14 14 14 14 14 13 14 17 17 14 13 12 12 12 12 11 10 9 9 8 7
30 30 29 29 29 28 28 28 27 27 27 27 27 26 26 26 25 24 23 22 22 22 21 21 21 20 17 14 12 13 14 14 15 14 14 14 13 15 19 18 15 15 14 14 13 12 12 11 10 9 8 7
32 32 31 31 31 31 30 30 29 29 29 29 29 28 28 27 26 25 24 24 23 23 23 22 22 21 19 17 15 14 16 16 16 16 15 15 17 18 19 17 16 16 14 14 13 13 12 11 10 9 8 8
35 33 33 33 33 32 32 32 31 31 31 31 31 31 30 29 28 27 26 25 25 25 25 24 24 23 22 20 18 18 19 21 21 19 19 20 21 20 18 16 16 15 14 14 13 13 12 11 9 8 8 8
36 35 35 36 35 34 34 33 33 33 33 33 33 33 32 31 30 29 28 27 27 27 26 25 25 24 24 22 21 21 22 24 23 22 22 22 22 20 19 18 17 16 15 14 13 13 11 10 9 9 9 8
39 37 37 37 36 36 36 35 35 35 35 35 35 34 34 33 32 32 30 30 29 29 28 27 26 25 25 24 23 23 24 25 25 23 23 23 22 21 20 19 18 17 15 14 13 12 11 11 10 10 10 9
41 40 40 39 38 38 38 37 37 37 37 36 36 36 35 35 34 33 32 31 31 30 29 28 27 26 26 26 24 24 25 26 25 25 24 24 23 22 21 20 19 17 16 15 14 13 12 11 11 11 10 10
43 43 42 41 41 41 40 40 40 39 39 38 38 37 37 36 36 35 34 33 32 32 31 30 29 28 28 27 26 26 26 27 27 26 25 24 24 23 22 21 20 18 17 16 14 14 13 12 11 11 11 11
45 45 45 45 44 44 43 43 43 41 41 40 39 39 39 38 38 37 37 35 34 33 32 31 30 29 29 29 28 28 28 28 28 27 26 25 24 24 23 21 20 19 18 17 16 15 14 13 12 12 12 11
46 46 47 48 47 46 46 46 45 44 43 42 42 41 40 40 40 39 39 37 36 35 34 33 32 32 31 31 31 30 29 28 28 27 26 25 24 23 22 21 21 20 19 18 17 16 15 14 13 13 12 12
44 46 47 47 46 47 47 46 46 46 45 45 44 43 42 42 41 41 40 39 39 37 36 35 35 34 33 33 33 32 31 30 29 28 26 24 23 22 22 21 21 20 20 19 18 17 16 15 14 13 13 13
40 42 42 42 43 45 45 44 45 45 46 46 45 44 44 44 43 43 42 42 41 40 39 38 37 36 36 35 34 33 32 31 30 29 27 25 24 23 22 22 22 22 21 20 19 18 17 15 14 14 14 13
37 38 38 39 40 40 40 41 43 44 44 44 44 45 45 45 45 45 44 44 43 42 41 40 39 38 37 36 35 34 33 33 32 30 28 27 26 25 24 24 24 23 22 21 20 18 17 16 15 15 14 14
32 34 35 36 37 38 38 39 41 42 43 43 44 44 45 46 46 46 46 45 45 44 43 43 42 40 39 37 35 35 34 34 33 31 30 29 27 26 25 25 24 23 23 21 20 19 17 17 16 16 15 15
25 28 31 32 33 35 36 37 39 40 40 41 42 43 44 45 45 45 46 46 45 45 45 44 43 42 40 38 36 36 35 34 34 33 31 30 28 27 27 26 25 24 23 22 21 19 18 18 17 17 16 16
17 21 25 28 29 30 31 33 34 35 36 37 38 39 40 41 42 43 43 44 45 44 45 45 44 42 40 38 37 36 36 35 35 34 32 30 29 28 27 26 26 25 24 23 21 19 18 18 18 18 18 17
20 17 18 21 24 25 26 28 30 31 33 34 35 36 37 37 38 39 40 41 43 43 44 43 42 41 40 39 38 37 36 36 35 34 33 32 30 29 28 27 26 26 24 22 20 19 20 20 20 19 19 18
31 25 20 17 17 19 21 24 26 28 30 32 33 35 36 37 37 38 39 40 41 42 42 42 41 40 39 39 38 37 37 36 36 35 34 33 31 30 29 27 26 25 23 21 20 20 20 20 21 20 19 19
40 35 29 24 21 19 19 20 21 23 26 29 31 34 35 35 37 37 38 38 39 41 41 41 40 39 38 38 38 38 38 38 38 38 36 35 33 30 28 27 26 23 21 19 18 20 21 21 20 19 18 18
39 36 33 30 26 25 24 23 21 21 21 23 25 29 32 34 35 35 36 37 39 40 41 41 41 40 39 39 39 40 40 40 39 39 38 35 33 31 29 28 26 24 20 15 13 14 16 18 17 16 16 17
35 34 32 30 27 25 23 22 21 21 21 20 20 21 25 29 31 33 34 36 37 39 40 41 41 41 41 41 41 41 40 39 38 38 37 35 32 30 30 28 26 26 20 11 8 6 6 8 10 10 11 12
33 31 31 30 29 26 23 22 21 19 19 19 18 18 19 21 25 28 31 33 35 37 38 39 41 41 41 41 41 41 39 38 38 38 38 37 35 31 28 26 25 26 23 14 8 3 2 3 2 3 5 7
32 32 32 32 31 28 24 24 24 23 22 20 19 18 17 18 19 23 27 30 33 35 37 38 39 40 40 41 41 41 40 40 40 40 40 39 38 34 28 24 23 26 27 23 14 5 1 1 1 3 2 2
34 33 34 34 34 32 30 30 30 29 28 28 25 23 21 20 20 20 23 26 30 33 35 36 38 39 39 40 40 40 41 41 41 41 42 41 40 39 35 29 26 25 27 28 25 14 4 2 1 3 1 0
33 32 31 31 31 30 29 27 28 28 29 30 29 28 26 24 22 22 22 23 26 30 33 35 36 37 38 39 39 40 40 40 40 40 41 41 42 42 40 35 28 25 26 28 30 26 17 9 5 3 3 1
32 31 29 27 24 23 22 21 23 26 27 27 27 27 27 25 22 21 22 23 24 26 29 33 35 36 37 38 38 39 39 39 39 40 41 41 42 42 41 38 32 28 28 26 26 30 28 20 13 8 6 3

ECMWFFLT2_925_spd_006.txt.gz
Wind_Speed
19 19 20 21 21 21 21 21 21 21 21 20 20 20 19 18 18 18 17 17 16 15 15 14 14 15 15 14 14 14 14 14 13 13 13 13 13 13 13 12 11 11 10 10 10 9 9 9 7 5 4 3
21 21 22 22 22 22 22 22 22 22 22 21 20 20 20 20 20 19 18 18 17 16 16 15 15 15 15 15 14 14 14 14 13 14 13 13 13 13 13 12 12 12 11 11 10 10 10 10 7 5 5 3
21 24 24 24 24 23 23 23 22 23 23 22 21 21 21 21 21 20 19 19 18 18 17 16 16 16 16 15 15 15 14 14 14 14 13 13 13 13 13 12 12 12 12 11 11 12 11 10 6 6 5 4
19 23 26 25 25 25 24 24 24 23 24 23 23 23 22 22 22 22 20 19 19 18 18 18 18 17 16 16 15 15 14 15 14 14 14 13 13 13 13 12 12 12 12 12 12 12 12 9 6 6 5 5
21 21 26 26 25 26 25 25 25 25 24 25 25 25 24 24 22 21 20 20 19 19 19 19 19 18 17 16 16 15 15 15 15 14 14 13 14 14 13 13 13 13 12 13 13 13 12 8 7 6 6 5
27 24 24 24 24 25 26 26 26 25 25 24 25 25 25 24 22 21 20 20 20 19 19 19 21 20 17 16 16 16 15 15 15 15 15 14 14 14 14 14 13 13 12 13 14 13 10 7 7 7 7 6
31 28 25 23 22 23 24 25 26 25 24 24 24 25 25 23 21 21 20 20 21 20 20 19 21 22 19 17 16 16 16 16 16 15 16 15 15 15 18 17 13 12 12 12 14 12 9 8 9 9 9 8
32 30 25 23 23 23 23 24 25 25 24 24 24 24 25 22 21 23 20 21 25 23 21 20 21 22 20 18 17 18 17 16 17 16 16 16 16 19 23 20 15 13 12 12 14 12 10 10 11 11 10 9
34 31 27 25 24 23 23 23 24 25 25 26 28 28 25 21 24 26 21 22 27 23 20 20 22 22 21 18 18 20 18 16 19 19 19 19 21 23 25 22 18 17 15 14 14 12 12 12 13 12 11 10
36 34 32 30 28 26 25 24 25 25 27 29 34 34 29 26 29 29 24 25 27 24 23 22 23 23 21 20 21 23 19 17 21 23 23 23 24 24 25 24 20 19 17 15 14 13 14 13 12 11 11 10
33 36 37 34 31 31 30 29 27 29 31 32 35 37 35 33 33 31 28 29 29 29 29 25 25 24 23 23 23 23 20 20 23 24 26 26 26 26 26 25 22 20 19 17 15 14 14 13 12 11 10 10
27 30 34 34 34 35 35 33 31 33 35 33 36 38 39 36 33 32 31 32 32 33 32 29 29 28 27 27 26 25 23 23 25 26 27 28 28 27 26 25 22 20 19 18 16 15 14 14 12 11 10 10
31 28 27 29 34 37 37 35 35 37 35 33 37 39 40 38 35 34 34 34 35 35 35 33 33 33 32 30 29 29 27 26 27 27 29 29 29 28 26 24 22 21 19 18 17 15 15 14 13 12 11 11
32 33 29 26 29 32 32 34 37 37 35 34 38 40 41 42 39 38 37 37 37 37 37 36 36 35 34 33 32 31 30 29 28 29 30 29 28 27 26 24 22 22 20 19 19 17 16 15 14 13 12 12
24 28 30 30 29 28 26 27 28 31 32 33 37 40 42 43 43 42 40 39 39 40 39 39 38 37 36 35 34 33 32 31 29 29 30 30 29 28 26 23 22 22 19 19 20 19 18 16 15 14 14 13
20 21 23 26 28 28 28 27 25 24 24 27 30 35 39 43 44 43 42 41 42 41 40 40 40 39 38 37 37 35 34 33 31 29 29 30 29 27 25 22 21 22 19 17 19 20 19 17 16 15 14 14
17 18 18 19 21 23 25 29 30 26 24 25 26 28 34 39 40 41 41 40 42 43 41 41 41 41 40 39 38 37 35 35 33 31 29 29 29 26 23 19 19 21 19 15 16 19 20 18 17 16 15 15
15 15 16 16 17 17 18 21 25 26 25 26 27 29 34 36 37 38 36 35 37 40 40 40 41 42 41 40 40 38 37 36 34 32 31 30 28 26 23 19 17 20 19 16 15 17 20 19 17 17 16 15
18 14 14 15 15 16 16 17 18 20 21 22 25 29 32 36 38 38 37 35 33 35 37 36 38 41 41 41 40 38 37 36 34 32 31 31 29 25 23 20 18 19 18 16 16 17 18 19 18 18 17 16
22 18 14 12 13 13 14 16 16 17 18 19 21 23 27 33 38 40 40 41 38 36 36 35 35 37 40 40 40 38 37 36 35 34 32 31 30 25 22 21 18 18 18 16 16 17 17 17 18 18 17 17
21 19 17 15 12 10 11 12 14 15 16 17 18 19 21 25 32 37 39 41 42 41 40 39 36 35 38 41 40 38 37 37 36 35 33 30 32 28 22 22 20 18 18 17 16 17 18 18 18 18 16 16
20 18 17 16 13 10 9 9 10 11 13 14 16 18 19 21 26 32 35 38 40 42 41 41 40 38 39 41 40 38 38 38 36 36 36 33 33 31 24 22 22 21 20 19 17 17 18 19 19 18 16 16
20 19 17 15 13 11 10 8 8 8 9 11 13 16 18 19 22 25 30 33 36 39 39 39 39 39 40 40 40 40 39 39 37 36 36 32 31 30 26 23 23 22 20 19 18 17 16 18 20 19 17 16
20 19 19 16 14 12 10 10 9 8 7 9 10 12 15 18 20 21 23 27 30 34 35 34 34 36 39 40 41 42 41 38 35 34 34 30 30 30 25 20 20 20 18 17 15 14 15 16 18 19 18 17
19 19 18 17 15 15 13 10 9 8 7 8 8 9 11 13 16 18 20 22 25 28 31 30 28 29 34 36 37 38 37 36 34 36 36 30 28 28 25 19 19 19 17 14 11 11 13 15 16 18 19 18
19 18 17 16 15 16 14 12 10 9 8 9 10 9 8 9 11 14 17 19 21 23 26 26 25 24 28 32 34 34 33 34 34 36 35 28 23 24 25 21 20 23 20 14 13 10 9 11 13 15 17 18
20 19 18 16 16 16 14 13 12 11 10 11 13 12 10 9 8 9 12 16 19 21 22 23 23 23 26 30 32 31 29 29 30 31 32 30 25 22 22 20 20 27 26 18 14 11 7 8 8 9 12 15
21 21 19 17 17 15 13 13 12 10 9 10 13 13 12 12 10 8 9 12 16 18 20 21 22 22 22 26 28 28 26 26 28 29 30 31 28 23 22 19 19 27 30 23 16 10 6 6 7 7 8 11
22 21 20 18 18 15 13 11 10 9 9 10 10 10 12 12 12 10 9 10 13 17 18 19 21 22 21 22 26 27 27 26 27 29 31 33 31 28 26 22 19 23 30 29 24 17 9 6 6 8 7 8
22 21 20 19 18 17 15 14 12 12 13 12 12 11 12 12 11 10 10 10 12 14 16 17 18 21 22 22 23 25 26 25 25 27 30 31 31 30 28 24 19 20 26 28 27 26 18 10 6 5 8 7
23 22 21 19 18 17 16 16 16 16 16 15 14 13 13 13 11 11 11 10 12 13 14 15 17 20 22 22 22 23 25 25 24 25 27 30 32 31 29 26 22 20 23 23 24 27 24 16 11 7 7 7

ECMWFFLT2_925_spd_012.txt.gz
Wind_Speed
17 17 17 18 17 18 18 19 19 19 18 18 18 18 19 19 19 19 19 19 19 19 19 18 18 18 17 18 18 17 18 17 17 17 16 16 15 15 14 13 13 15 16 15 12 11 7 2 1 3 6 7
17 17 17 18 18 18 18 19 19 19 20 20 19 20 20 20 21 21 21 20 20 20 19 19 19 19 18 18 18 18 18 18 18 18 17 17 16 16 15 14 16 17 15 15 14 14 10 6 3 1 5 6
18 19 19 19 20 20 19 19 20 20 21 21 20 21 21 21 22 23 22 22 21 21 20 20 20 20 20 19 19 19 19 19 18 18 18 17 17 17 15 15 17 16 15 14 13 14 13 9 4 2 5 5
17 19 19 20 21 21 21 21 21 21 22 22 20 20 21 21 22 23 24 24 23 22 22 22 22 21 21 20 19 20 19 19 19 18 18 18 18 18 17 16 15 16 15 13 11 13 14 9 5 3 5 2
16 17 19 21 22 22 22 22 23 23 23 23 22 21 21 21 21 21 22 24 25 24 23 23 24 23 22 22 21 20 20 20 20 20 19 19 19 19 18 16 15 16 15 12 10 11 15 11 6 3 5 3
16 16 17 19 21 22 24 24 24 25 24 24 24 23 22 22 24 24 23 23 24 25 24 24 24 25 24 23 22 22 21 21 21 20 20 20 19 19 18 17 16 17 16 14 12 10 15 13 8 5 6 6
13 15 14 15 19 21 24 25 25 25 26 26 26 26 24 23 24 26 26 25 24 24 25 24 23 25 26 25 24 24 23 22 22 21 21 21 20 20 20 20 19 18 17 17 14 11 16 14 9 7 8 7
13 14 13 14 17 19 21 24 25 25 26 27 27 28 27 24 22 24 25 25 25 25 26 26 25 25 27 27 25 25 25 24 24 23 23 23 22 22 22 22 21 19 17 18 17 16 19 16 11 10 9 8
14 15 15 14 15 17 19 22 24 25 26 27 27 28 29 27 24 23 25 25 26 27 28 28 28 27 28 29 26 25 27 27 26 25 25 25 24 25 25 24 23 23 20 19 19 20 22 18 14 13 11 9
14 14 15 15 15 16 17 20 22 24 25 26 28 29 30 29 27 25 26 27 27 29 31 30 29 30 30 32 28 25 29 30 28 28 27 27 27 27 27 26 25 25 25 23 22 24 26 21 15 14 13 10
16 14 13 14 16 17 17 18 19 22 24 25 27 29 30 29 28 28 29 29 28 29 32 32 31 32 32 34 33 29 30 33 32 31 30 28 27 28 29 28 27 26 26 25 25 27 26 20 16 16 14 11
20 18 15 14 15 17 18 18 19 19 22 24 25 27 30 30 30 30 31 31 29 28 31 33 31 32 33 35 37 33 31 33 34 34 33 31 29 29 30 30 28 28 27 26 26 27 23 19 18 18 16 13
20 20 19 17 17 17 17 18 20 19 21 23 24 26 28 30 31 31 31 32 31 29 31 34 32 31 33 36 37 36 32 32 35 35 35 35 33 31 31 31 31 30 29 28 27 25 22 20 21 21 18 17
18 19 19 19 18 17 18 18 19 19 21 22 23 25 26 28 30 31 30 31 33 31 32 35 33 32 33 36 38 37 35 34 34 35 36 37 37 35 34 33 34 33 33 30 28 25 23 23 24 22 20 20
18 17 17 18 17 15 17 19 20 20 20 21 22 23 24 26 29 31 31 29 29 29 30 34 34 33 33 36 38 38 37 36 36 35 35 37 40 40 38 37 36 35 35 33 31 28 27 26 26 24 23 23
18 18 17 17 16 15 15 15 17 19 20 21 22 22 23 24 25 29 32 30 27 27 28 33 34 33 34 36 38 40 38 37 37 37 33 33 37 40 38 37 36 36 36 35 34 32 30 29 27 26 25 24
16 17 17 16 16 16 15 13 13 15 18 20 22 23 24 24 23 23 27 31 29 27 26 28 33 34 35 37 38 39 39 37 36 37 35 31 33 36 36 36 35 35 36 36 36 34 33 31 29 28 26 26
15 15 15 15 15 15 16 16 15 13 14 16 19 21 23 24 25 23 23 26 28 28 26 25 29 34 35 36 37 38 39 38 37 38 37 34 33 35 36 36 36 36 36 36 36 34 33 32 30 29 27 26
14 14 14 14 14 14 15 16 17 15 14 14 16 19 21 22 24 24 24 25 26 26 26 25 26 30 34 35 36 38 39 39 39 39 38 37 36 36 37 37 36 37 37 36 35 35 33 33 31 29 28 27
15 13 14 14 14 14 14 14 16 16 15 14 15 16 19 21 22 22 23 24 26 28 26 25 25 27 32 34 36 37 38 38 39 40 39 38 38 38 38 37 36 37 38 36 35 35 34 33 31 30 29 29
15 13 13 14 14 14 14 14 15 15 15 14 14 15 16 19 20 22 23 21 21 26 28 27 26 26 28 32 36 37 38 39 40 41 40 39 39 39 37 37 37 36 37 36 34 33 33 32 32 32 31 30
15 13 13 14 14 14 15 15 15 16 16 15 14 15 15 16 18 21 24 23 20 21 25 29 30 28 26 28 35 39 40 41 42 41 41 40 40 40 39 38 38 36 36 36 33 32 33 33 32 32 32 31
15 13 13 15 15 15 15 16 16 16 18 18 17 16 16 15 16 18 22 24 23 22 22 25 29 31 28 26 30 39 41 40 42 41 41 40 39 40 40 39 39 37 35 34 32 31 31 32 32 31 30 30
15 14 14 15 15 15 16 17 18 18 19 19 18 18 17 15 15 17 18 20 22 23 23 22 23 27 30 28 27 34 40 40 41 42 41 39 38 38 37 37 37 35 33 31 28 28 29 28 29 29 29 29
17 15 15 14 14 15 16 18 20 20 20 19 18 20 21 20 19 19 18 18 18 20 23 23 22 23 26 28 27 28 35 39 39 40 41 39 38 38 36 34 35 35 33 28 22 19 22 24 25 26 27 28
19 18 17 17 17 16 16 16 18 20 21 22 22 23 25 25 23 22 21 20 19 19 20 23 25 25 26 28 28 25 26 33 36 37 39 38 36 37 38 35 34 37 33 25 20 15 12 14 18 23 26 27
21 21 21 22 23 22 19 17 17 19 21 24 26 26 27 29 26 22 21 21 20 21 21 22 23 26 29 30 31 29 26 27 30 33 36 38 36 34 34 33 34 39 38 28 23 16 8 7 8 12 19 25
23 23 23 24 26 26 24 21 17 17 19 21 25 26 25 27 27 22 21 20 20 21 22 22 22 22 26 30 32 31 29 27 27 30 32 36 37 34 30 29 32 39 43 35 27 15 4 5 6 5 11 16
23 23 24 25 26 26 24 21 17 15 16 17 21 24 23 21 21 21 22 21 20 21 21 21 23 24 24 25 27 30 29 28 27 28 30 31 34 35 32 29 28 34 41 41 38 26 10 7 6 6 8 10
24 23 24 24 24 23 21 20 19 18 18 17 18 21 24 24 23 22 21 21 22 23 23 22 21 23 26 26 26 26 27 28 27 27 30 31 31 34 35 31 25 28 36 41 42 38 28 20 12 7 12 9
25 25 24 24 24 24 22 21 22 22 21 20 19 20 22 25 26 25 24 23 23 22 23 24 22 19 22 27 28 27 26 27 26 26 29 31 28 28 31 31 26 27 32 33 36 39 37 27 16 15 18 10

ECMWFFLT2_925_spd_015.txt.gz
Wind_Speed
13 13 13 13 14 15 15 15 16 16 17 17 17 17 17 17 18 18 18 18 18 18 18 18 17 18 18 17 18 18 18 18 18 18 18 18 18 17 16 16 15 15 19 20 17 12 9 5 3 5 9 11
12 12 13 13 15 16 16 15 16 17 18 18 17 18 19 19 18 19 19 20 20 18 18 18 18 18 18 18 18 19 19 19 19 19 19 19 19 18 17 17 16 17 20 19 18 15 11 7 3 3 5 9
13 12 13 14 15 16 17 17 16 18 18 19 19 18 18 19 19 19 20 21 20 19 18 18 19 18 18 18 18 19 19 19 19 20 19 20 19 18 18 18 17 19 21 20 19 17 15 11 8 7 5 7
13 15 16 17 18 19 19 19 18 18 19 19 20 20 19 18 19 21 21 22 22 21 20 19 20 20 19 19 19 19 20 20 20 21 20 20 20 19 18 18 19 22 22 21 21 18 17 14 11 9 8 8
13 11 14 17 20 20 20 21 21 20 19 20 21 22 21 18 19 22 23 24 25 24 22 21 22 22 20 20 20 20 21 21 21 22 21 20 20 19 18 18 21 23 21 21 22 20 17 14 13 12 11 10
21 19 15 14 16 19 21 21 22 22 22 22 23 23 24 21 19 20 23 24 25 26 24 24 23 23 23 22 21 21 22 22 22 22 22 21 20 19 19 20 23 23 21 20 20 19 16 14 13 12 12 11
22 21 21 19 18 15 18 22 22 23 23 24 24 24 25 25 22 20 21 24 26 26 26 27 26 24 24 24 23 23 24 23 24 24 23 22 21 20 21 22 23 23 20 19 20 17 15 14 14 12 11 11
23 23 21 19 20 19 16 17 21 22 23 24 26 26 27 27 25 22 21 23 25 26 27 28 28 26 25 25 25 25 25 25 26 25 24 24 23 23 24 22 23 24 23 21 21 19 17 16 15 13 11 11
24 23 22 20 20 20 19 17 18 20 23 25 26 27 28 29 28 25 23 24 26 27 28 29 30 29 27 28 29 28 26 26 28 27 26 26 26 27 27 24 24 26 26 25 23 21 19 17 16 15 12 11
24 23 22 23 22 21 20 18 18 17 18 23 27 29 29 30 31 28 26 25 27 29 30 31 31 32 31 30 31 31 29 28 29 30 28 28 29 29 29 28 28 27 27 28 25 23 21 20 19 17 14 12
25 24 23 22 21 21 21 21 19 17 17 18 22 27 28 29 31 31 30 28 29 30 32 33 33 33 34 33 33 31 32 31 30 31 31 30 31 31 31 32 31 30 30 29 28 26 24 24 22 21 18 14
26 25 23 22 21 21 21 22 22 20 18 16 17 20 25 27 28 30 31 31 32 32 33 34 35 36 36 36 35 33 33 34 31 32 34 32 33 33 33 34 34 33 32 31 30 29 27 26 25 24 21 16
25 25 24 22 21 21 21 22 23 23 22 19 17 17 19 22 25 28 29 30 32 34 36 37 37 38 39 38 38 36 35 36 34 33 35 34 35 36 35 36 36 35 34 33 32 30 29 29 27 26 23 18
23 24 24 23 22 20 21 22 23 23 24 23 22 19 18 18 20 23 26 28 28 27 31 37 39 40 40 40 40 40 40 39 37 35 36 36 36 38 39 39 39 38 36 35 34 33 32 31 29 27 23 20
23 23 23 23 22 21 20 21 22 22 23 23 24 23 22 19 18 20 21 24 28 26 25 30 35 39 42 44 43 43 42 41 40 38 38 39 38 38 40 40 40 39 38 37 36 35 34 32 31 29 24 21
23 22 23 23 23 22 21 20 21 21 22 22 23 24 24 23 21 19 18 19 24 29 30 29 29 33 38 44 46 45 43 42 42 40 38 40 40 39 39 39 39 39 39 38 37 36 36 35 34 31 27 24
22 21 23 23 24 23 22 20 21 22 21 21 22 24 24 25 24 21 19 17 19 23 29 31 30 30 32 37 43 46 44 42 43 43 40 39 40 40 39 39 38 38 38 39 38 37 36 35 35 33 30 28
23 21 22 23 23 24 23 22 22 22 22 21 21 23 25 25 26 24 22 20 19 19 21 26 28 29 31 33 36 41 45 43 43 45 43 39 40 41 41 41 40 40 40 39 39 38 37 36 35 34 32 30
24 22 22 23 23 23 22 22 23 24 23 23 22 22 23 24 26 26 25 23 21 19 18 19 24 28 31 33 34 37 42 44 44 45 45 42 40 40 41 42 42 42 41 41 40 39 38 37 36 35 34 33
23 21 21 22 23 22 21 22 24 24 23 25 25 25 23 22 24 25 26 25 23 21 18 16 19 25 29 31 34 36 39 42 44 45 45 44 42 41 40 40 41 43 43 42 42 40 39 38 37 36 35 35
21 21 22 23 23 21 21 23 24 24 23 25 25 26 26 24 24 25 26 26 24 22 20 17 17 19 23 26 29 33 38 41 43 44 44 44 44 44 42 40 40 41 42 43 42 41 40 39 38 38 38 37
21 21 23 23 23 23 23 24 24 24 25 27 27 26 26 26 26 27 27 27 26 24 22 20 19 17 17 20 23 28 35 41 42 43 44 44 45 45 44 42 41 40 41 42 41 41 41 41 40 39 39 38
22 22 23 24 24 24 24 23 22 23 24 27 28 27 25 26 27 28 28 28 28 28 27 24 22 20 17 17 20 24 30 38 40 40 42 43 43 44 45 45 45 43 41 39 39 40 39 40 41 40 38 37
27 25 25 25 24 24 24 23 22 23 24 24 25 26 27 28 29 29 29 30 30 31 31 29 26 24 20 16 16 20 26 34 38 38 39 41 42 42 42 43 45 43 41 36 32 32 34 35 36 37 36 36
29 27 27 26 26 27 27 25 24 24 25 25 25 24 25 28 31 32 31 31 31 32 32 31 30 28 25 20 16 16 19 26 34 37 36 36 39 42 40 39 41 42 38 30 22 20 24 28 30 32 34 35
30 29 30 30 30 28 27 25 24 25 25 27 26 22 22 26 29 31 31 29 30 32 32 31 30 29 29 26 22 19 17 19 26 33 34 31 29 34 39 38 39 42 35 26 21 15 11 14 21 26 31 34
31 30 28 27 26 25 25 24 26 27 27 25 24 22 22 23 26 28 28 27 27 29 30 30 30 29 29 28 27 25 22 19 21 26 31 31 29 27 30 31 34 42 41 32 24 14 7 7 9 13 21 30
30 27 25 25 26 26 27 28 28 28 27 24 23 24 23 22 24 26 27 27 27 27 27 28 28 29 30 30 27 25 26 24 22 23 27 30 32 29 25 24 26 37 45 38 26 13 3 3 4 6 12 19
27 27 27 27 28 28 27 27 27 26 26 25 24 25 26 24 23 23 25 27 28 28 28 28 28 29 31 32 30 26 25 27 25 23 24 27 31 31 28 25 23 30 39 40 37 26 10 5 5 7 7 9
28 27 27 25 25 26 24 22 23 23 24 26 26 27 27 25 24 23 23 25 28 29 30 30 30 29 29 31 31 29 27 26 27 26 24 24 28 31 31 30 23 23 32 37 40 38 28 21 15 8 9 8
30 29 28 27 26 27 24 21 22 24 25 26 27 27 27 25 24 24 24 25 27 28 29 30 30 29 29 29 29 30 28 27 27 29 28 25 26 28 30 31 26 24 29 31 34 37 37 32 20 12 15 11